timestamp,surface_pressure_avg,surface_temp_avg,battery_voltage,lat,long
2022-06-08 00:09:01+00:00,234.8464,5.28,12.09,47.84626,-54.09684
2022-06-08 00:19:01+00:00,235.4515,5.2,12.09,47.84626,-54.09684
2022-06-08 00:29:01+00:00,240.5381,5.19,12.09,47.84626,-54.09684
2022-06-08 00:39:01+00:00,241.6964,5.1,12.09,47.84626,-54.09684
2022-06-08 00:49:01+00:00,239.0331,5.1,12.09,47.84626,-54.09684
2022-06-08 00:59:01+00:00,237.3598,5.1,12.09,47.84626,-54.09684
2022-06-08 01:09:01+00:00,239.5613,5.1,12.09,47.84626,-54.09684
2022-06-08 01:19:00+00:00,238.4231,5.1,12.09,47.84626,-54.09684
2022-06-08 01:29:00+00:00,237.7448,5.1,12.09,47.84626,-54.09684
2022-06-08 01:39:00+00:00,240.4247,5.04,12.09,47.84626,-54.09684
2022-06-08 01:49:00+00:00,245.8897,5.0,12.09,47.84626,-54.09684
2022-06-08 01:59:00+00:00,248.1914,4.97,12.09,47.84626,-54.09684
2022-06-08 02:09:00+00:00,250.0748,4.9,12.09,47.84626,-54.09684
2022-06-08 02:19:00+00:00,254.5914,4.8,12.01,47.84626,-54.09684
2022-06-08 02:29:00+00:00,260.3064,4.8,12.01,47.84626,-54.09684
2022-06-08 02:39:00+00:00,263.9681,4.8,12.01,47.84626,-54.09684
2022-06-08 02:49:00+00:00,269.2747,4.79,12.01,47.84626,-54.09684
2022-06-08 02:59:00+00:00,275.313,4.79,12.01,47.84626,-54.09684
2022-06-08 03:09:00+00:00,280.1748,4.7,12.01,47.84626,-54.09684
2022-06-08 03:19:01+00:00,284.093,4.7,12.01,47.84626,-54.09684
2022-06-08 03:29:01+00:00,288.198,4.7,12.01,47.84626,-54.09684
2022-06-08 03:39:01+00:00,294.268,4.68,12.01,47.84626,-54.09684
2022-06-08 03:49:01+00:00,298.5814,4.61,12.01,47.84626,-54.09684
2022-06-08 03:59:01+00:00,298.4382,4.65,12.01,47.84626,-54.09684
2022-06-08 04:09:01+00:00,300.108,4.6,12.01,47.84626,-54.09684
2022-06-08 04:19:00+00:00,306.0963,4.6,12.01,47.84626,-54.09684
2022-06-08 04:29:00+00:00,307.7596,4.6,12.01,47.84626,-54.09684
2022-06-08 04:39:00+00:00,308.2047,4.6,12.01,47.84626,-54.09684
2022-06-08 04:49:00+00:00,312.2163,4.6,12.01,47.84626,-54.09684
2022-06-08 04:59:00+00:00,316.4565,4.6,12.01,47.84626,-54.09684
2022-06-08 05:09:00+00:00,315.3414,4.6,12.01,47.84626,-54.09684
2022-06-08 05:19:00+00:00,316.363,4.6,12.01,47.84626,-54.09684
2022-06-08 05:29:00+00:00,317.088,4.6,12.01,47.84626,-54.09684
2022-06-08 05:39:00+00:00,317.0681,4.6,12.01,47.84626,-54.09684
2022-06-08 05:49:00+00:00,318.2563,4.6,12.01,47.84626,-54.09684
2022-06-08 05:59:00+00:00,321.4414,4.6,12.01,47.84626,-54.09684
2022-06-08 06:09:00+00:00,320.4615,4.6,12.01,47.84626,-54.09684
2022-06-08 06:19:00+00:00,320.328,4.6,12.01,47.84626,-54.09684
2022-06-08 06:29:00+00:00,323.2529,4.6,12.01,47.84626,-54.09684
2022-06-08 06:39:00+00:00,320.1647,4.63,12.01,47.84626,-54.09684
2022-06-08 06:49:00+00:00,316.4747,4.7,12.01,47.84626,-54.09684
2022-06-08 06:59:00+00:00,318.2447,4.7,12.01,47.84626,-54.09684
2022-06-08 07:09:00+00:00,316.96299999999997,4.7,12.01,47.84626,-54.09684
2022-06-08 07:19:00+00:00,308.6297,4.7,11.93,47.84626,-54.09684
2022-06-08 07:29:00+00:00,303.4431,4.7,11.93,47.84626,-54.09684
2022-06-08 07:39:00+00:00,306.3763,4.7,11.93,47.84626,-54.09684
2022-06-08 07:49:00+00:00,301.9431,4.69,11.93,47.84626,-54.09684
2022-06-08 07:59:00+00:00,292.3763,4.6,11.93,47.84626,-54.09684
2022-06-08 08:09:00+00:00,286.3181,4.6,11.93,47.84626,-54.09684
2022-06-08 08:19:01+00:00,282.978,4.63,11.93,47.84626,-54.09684
2022-06-08 08:29:01+00:00,275.803,4.7,11.93,47.84626,-54.09684
2022-06-08 08:39:01+00:00,270.5347,4.7,11.93,47.84626,-54.09684
2022-06-08 08:49:01+00:00,269.8298,4.7,11.93,47.84626,-54.09684
2022-06-08 08:59:01+00:00,268.5281,4.74,11.93,47.84626,-54.09684
2022-06-08 09:09:01+00:00,260.913,4.76,11.93,47.84626,-54.09684
2022-06-08 09:19:00+00:00,257.7448,4.78,11.93,47.84626,-54.09684
2022-06-08 09:29:00+00:00,253.5131,4.79,11.93,47.84626,-54.09684
2022-06-08 09:39:00+00:00,246.8247,4.78,11.93,47.84626,-54.09684
2022-06-08 09:49:00+00:00,240.2448,4.77,11.93,47.84626,-54.09684
2022-06-08 09:59:00+00:00,238.7231,4.76,11.93,47.84626,-54.09684
2022-06-08 10:09:00+00:00,234.3497,4.75,11.93,47.84626,-54.09684
2022-06-08 10:19:01+00:00,225.3581,4.72,12.01,47.84626,-54.09684
2022-06-08 10:29:01+00:00,221.9614,4.72,12.01,47.84626,-54.09684
2022-06-08 10:39:01+00:00,221.7264,4.73,12.01,47.84626,-54.09684
2022-06-08 10:49:01+00:00,218.0231,4.74,12.01,47.84626,-54.09684
2022-06-08 10:59:01+00:00,215.3064,4.73,12.01,47.84626,-54.09684
2022-06-08 11:09:01+00:00,218.8098,4.71,12.01,47.84626,-54.09684
2022-06-08 11:19:01+00:00,221.2564,4.7,12.25,47.84626,-54.09684
2022-06-08 11:29:01+00:00,218.6598,4.7,12.25,47.84626,-54.09684
2022-06-08 11:39:01+00:00,215.3197,4.7,12.25,47.84626,-54.09684
2022-06-08 11:49:01+00:00,218.2314,4.7,12.25,47.84626,-54.09684
2022-06-08 11:59:01+00:00,219.3531,4.7,12.25,47.84626,-54.09684
2022-06-08 12:09:01+00:00,215.0281,4.7,12.25,47.84626,-54.09684
2022-06-08 12:19:01+00:00,211.7947,4.7,12.41,47.84626,-54.09684
2022-06-08 12:29:01+00:00,215.2097,4.69,12.41,47.84626,-54.09684
2022-06-08 12:39:01+00:00,216.9665,4.69,12.41,47.84626,-54.09684
2022-06-08 12:49:01+00:00,213.5081,4.7,12.41,47.84626,-54.09684
2022-06-08 12:59:01+00:00,212.5215,4.7,12.41,47.84626,-54.09684
2022-06-08 13:09:01+00:00,216.1448,4.7,12.41,47.84626,-54.09684
2022-06-08 13:19:00+00:00,217.4398,4.7,12.49,47.84626,-54.09684
2022-06-08 13:29:00+00:00,218.133,4.7,12.49,47.84626,-54.09684
2022-06-08 13:39:00+00:00,219.7331,4.69,12.49,47.84626,-54.09684
2022-06-08 13:49:00+00:00,222.2364,4.6,12.49,47.84626,-54.09684
2022-06-08 13:59:00+00:00,222.7447,4.6,12.49,47.84626,-54.09684
2022-06-08 14:09:00+00:00,223.4798,4.55,12.49,47.84626,-54.09684
2022-06-08 14:19:00+00:00,226.7964,4.5,12.49,47.84626,-54.09684
2022-06-08 14:29:00+00:00,231.6481,4.5,12.49,47.84626,-54.09684
2022-06-08 14:39:00+00:00,233.6064,4.55,12.49,47.84626,-54.09684
2022-06-08 14:49:00+00:00,236.4597,4.57,12.49,47.84626,-54.09684
2022-06-08 14:59:00+00:00,243.1998,4.59,12.49,47.84626,-54.09684
2022-06-08 15:09:00+00:00,250.3247,4.6,12.49,47.84626,-54.09684
2022-06-08 15:19:01+00:00,254.798,4.6,12.41,47.84626,-54.09684
2022-06-08 15:29:01+00:00,261.0448,4.5,12.41,47.84626,-54.09684
2022-06-08 15:39:01+00:00,265.928,4.4,12.41,47.84626,-54.09684
2022-06-08 15:49:01+00:00,269.1647,4.4,12.41,47.84626,-54.09684
2022-06-08 15:59:01+00:00,273.4481,4.4,12.41,47.84626,-54.09684
2022-06-08 16:09:01+00:00,280.7197,4.3,12.41,47.84626,-54.09684
2022-06-08 16:19:00+00:00,284.0314,4.28,12.41,47.84626,-54.09684
2022-06-08 16:29:00+00:00,283.9281,4.3,12.41,47.84626,-54.09684
2022-06-08 16:39:00+00:00,285.7847,4.3,12.41,47.84626,-54.09684
2022-06-08 16:49:00+00:00,292.913,4.3,12.41,47.84626,-54.09684
2022-06-08 16:59:00+00:00,298.7031,4.29,12.41,47.84626,-54.09684
2022-06-08 17:09:00+00:00,300.263,4.2,12.41,47.84626,-54.09684
2022-06-08 17:19:00+00:00,302.2963,4.1,12.33,47.84626,-54.09684
2022-06-08 17:29:00+00:00,305.9264,4.1,12.33,47.84626,-54.09684
2022-06-08 17:39:00+00:00,305.7814,4.18,12.33,47.84626,-54.09684
2022-06-08 17:49:00+00:00,304.9214,4.21,12.33,47.84626,-54.09684
2022-06-08 17:59:00+00:00,306.563,4.2,12.33,47.84626,-54.09684
2022-06-08 18:09:00+00:00,307.6997,4.2,12.33,47.84626,-54.09684
2022-06-08 18:19:00+00:00,307.6497,4.16,12.25,47.84626,-54.09684
2022-06-08 18:29:00+00:00,308.5696,4.12,12.25,47.84626,-54.09684
2022-06-08 18:39:00+00:00,309.5897,4.1,12.25,47.84626,-54.09684
2022-06-08 18:49:00+00:00,309.2563,4.1,12.25,47.84626,-54.09684
2022-06-08 18:59:00+00:00,308.3281,4.1,12.25,47.84626,-54.09684
2022-06-08 19:09:00+00:00,307.4413,4.0,12.25,47.84626,-54.09684
2022-06-08 19:19:00+00:00,308.2347,4.0,12.17,47.84626,-54.09684
2022-06-08 19:29:00+00:00,306.8079,4.0,12.17,47.84626,-54.09684
2022-06-08 19:39:00+00:00,303.0314,4.0,12.17,47.84626,-54.09684
2022-06-08 19:49:00+00:00,298.5264,4.0,12.17,47.84626,-54.09684
2022-06-08 19:59:00+00:00,296.6097,4.0,12.17,47.84626,-54.09684
2022-06-08 20:09:00+00:00,293.9663,4.1,12.17,47.84626,-54.09684
2022-06-08 20:19:00+00:00,289.9998,4.38,12.17,47.84626,-54.09684
2022-06-08 20:29:00+00:00,285.2031,4.66,12.17,47.84626,-54.09684
2022-06-08 20:39:00+00:00,278.8397,4.81,12.17,47.84626,-54.09684
2022-06-08 20:49:00+00:00,274.0797,5.1,12.17,47.84626,-54.09684
2022-06-08 20:59:00+00:00,270.6864,5.2,12.17,47.84626,-54.09684
2022-06-08 21:09:00+00:00,266.6947,5.1,12.17,47.84626,-54.09684
2022-06-08 21:19:00+00:00,260.5664,5.1,12.17,47.84626,-54.09684
2022-06-08 21:29:00+00:00,255.7647,5.0,12.17,47.84626,-54.09684
2022-06-08 21:39:00+00:00,252.1097,5.09,12.17,47.84626,-54.09684
2022-06-08 21:49:00+00:00,244.5847,5.1,12.17,47.84626,-54.09684
2022-06-08 21:59:00+00:00,236.1214,5.14,12.17,47.84626,-54.09684
2022-06-08 22:09:00+00:00,232.8831,5.2,12.17,47.84626,-54.09684
2022-06-08 22:19:01+00:00,232.3914,5.2,12.09,47.84626,-54.09684
2022-06-08 22:29:01+00:00,227.8398,5.2,12.09,47.84626,-54.09684
2022-06-08 22:39:01+00:00,222.0115,5.2,12.09,47.84626,-54.09684
2022-06-08 22:49:01+00:00,219.9015,5.2,12.09,47.84626,-54.09684
2022-06-08 22:59:01+00:00,217.2864,5.2,12.09,47.84626,-54.09684
2022-06-08 23:09:01+00:00,211.6565,5.24,12.09,47.84626,-54.09684
2022-06-08 23:19:00+00:00,211.8214,5.27,12.09,47.84626,-54.09684
2022-06-08 23:29:00+00:00,215.6698,5.29,12.09,47.84626,-54.09684
2022-06-08 23:39:00+00:00,212.0798,5.3,12.09,47.84626,-54.09684
2022-06-08 23:49:00+00:00,207.298,5.3,12.09,47.84626,-54.09684
2022-06-08 23:59:00+00:00,210.2581,5.3,12.09,47.84626,-54.09684
